EW4484 Toyokawa-city JP current weather conditions

sailwx.info

Wind from 351 at 2 knots gusting 2

Air temperature 25.6° C
Dewpoint 17.7° C

Last reported at 2020-Sep-18 12:44 UTC.
Time now 2020-Sep-18 13:41 UTC

Location: N 34°49' E 137°19'.
View on Google Maps.

See reports from other nearby stations

  
Tides and Currents Weather Stations Pressure Air Temp Water Temp Dewpoint Dewpoint Depression Visibility Wind Speed Wind Dir Waves Ship Positions
date/time (UTC)wind fromknots sea level pressurealtimeterstation pressurevisibilityair tempwater tempwave heightnotes
2020-Sep-18 12:44 351 2 gusting 2 25.6
2020-Sep-18 12:34 346 1 gusting 5 26.1
2020-Sep-18 12:24 338 1 gusting 7 26.1
2020-Sep-18 12:14 310 2 gusting 5 26.1
2020-Sep-18 12:04 217 1 gusting 5 26.1
2020-Sep-18 11:54 302 2 gusting 6 26.1
2020-Sep-18 11:44 314 3 gusting 7 26.1
2020-Sep-18 11:34 320 4 gusting 8 26.1
2020-Sep-18 11:24 326 26.1
2020-Sep-18 11:14 312 1 gusting 5 26.1
2020-Sep-18 11:04 329 4 gusting 8 26.7
2020-Sep-18 10:54 338 3 gusting 7 26.7
2020-Sep-18 10:44 337 4 gusting 6 26.7
2020-Sep-18 10:34 342 4 gusting 6 26.7
2020-Sep-18 10:24 321 2 gusting 5 26.7
2020-Sep-18 10:14 350 2 gusting 6 26.7
2020-Sep-18 10:04 349 1 gusting 5 26.7
2020-Sep-18 09:54 042 3 gusting 11 26.7
2020-Sep-18 09:44 002 2 gusting 12 27.2
2020-Sep-18 09:34 333 6 gusting 10 27.2
2020-Sep-18 09:24 338 6 gusting 8 27.8
2020-Sep-18 09:14 347 4 gusting 11 28.3
2020-Sep-18 09:04 353 6 gusting 10 28.9
2020-Sep-18 08:54 339 4 gusting 8 29.4
2020-Sep-18 08:44 022 0 gusting 2 29.4
2020-Sep-18 08:34 112 1 gusting 2 30.0
2020-Sep-18 08:24 090 1 gusting 2 30.0
2020-Sep-18 08:14 135 0 gusting 1 30.6
2020-Sep-18 08:04 169 0 gusting 2 30.6
2020-Sep-18 07:54 217 1 gusting 5 30.6
2020-Sep-18 07:44 170 1 gusting 5 31.1
2020-Sep-18 07:34 135 1 gusting 5 31.7
2020-Sep-18 07:24 240 1 gusting 4 31.7
2020-Sep-18 07:14 194 2 gusting 4 31.7
2020-Sep-18 07:04 206 2 gusting 4 31.7
2020-Sep-18 06:54 197 2 gusting 5 31.7
2020-Sep-18 06:44 129 3 gusting 6 31.7
2020-Sep-18 06:34 172 2 gusting 5 32.2
2020-Sep-18 06:24 146 2 gusting 5 32.2
2020-Sep-18 06:14 154 3 gusting 5 31.7
2020-Sep-18 06:04 161 2 gusting 6 32.2
2020-Sep-18 05:54 176 4 gusting 7 32.2
2020-Sep-18 05:44 196 3 gusting 6 32.2
2020-Sep-18 05:34 173 4 gusting 8 31.7
2020-Sep-18 05:24 175 5 gusting 7 31.7
2020-Sep-18 05:14 164 4 gusting 7 32.2
2020-Sep-18 05:04 153 5 gusting 8 32.8
2020-Sep-18 04:54 170 4 gusting 6 32.2
2020-Sep-18 04:44 189 5 gusting 7 32.8
2020-Sep-18 04:34 174 3 gusting 6 33.3
2020-Sep-18 04:24 229 2 gusting 6 32.8
2020-Sep-18 04:14 259 4 gusting 6 32.8
2020-Sep-18 04:04 155 4 gusting 8 33.3
2020-Sep-18 03:54 173 6 gusting 8 33.3
2020-Sep-18 03:44 184 4 gusting 7 33.3
2020-Sep-18 03:34 182 4 gusting 11 33.3
2020-Sep-18 03:24 171 4 gusting 7 33.9
2020-Sep-18 03:14 221 3 gusting 7 33.9
2020-Sep-18 03:04 193 6 gusting 10 33.9
2020-Sep-18 02:54 061 3 gusting 6 33.9
2020-Sep-18 02:44 167 7 gusting 11 33.9
2020-Sep-18 02:34 189 5 gusting 7 35.0
2020-Sep-18 02:24 155 2 gusting 5 35.0
2020-Sep-18 02:14 158 1 gusting 6 35.6
2020-Sep-18 02:04 189 2 gusting 6 34.4
2020-Sep-18 01:54 156 1 gusting 8 33.9
2020-Sep-18 01:44 196 2 gusting 6 35.0
2020-Sep-18 01:34 180 1 gusting 4 34.4
2020-Sep-18 01:24 217 1 gusting 5 33.3
2020-Sep-18 01:14 196 3 gusting 6 32.8
2020-Sep-18 01:04 174 4 gusting 6 32.8
2020-Sep-18 00:54 201 4 gusting 5 32.8
2020-Sep-18 00:44 177 4 gusting 6 33.3
2020-Sep-18 00:34 146 2 gusting 6 33.9
2020-Sep-18 00:24 079 1 gusting 6 32.8
2020-Sep-18 00:14 183 3 gusting 6 32.8
2020-Sep-18 00:04 202 4 gusting 6 32.2
2020-Sep-17 23:54 200 2 gusting 5 32.8
2020-Sep-17 23:44 166 1 gusting 4 32.8
2020-Sep-17 23:34 163 1 gusting 4 31.1
2020-Sep-17 23:24 173 2 gusting 4 30.6
2020-Sep-17 23:14 199 1 gusting 4 29.4
2020-Sep-17 23:04 156 0 gusting 1 28.9
2020-Sep-17 22:54 090 0 gusting 0 28.9
2020-Sep-17 22:44 090 28.3
2020-Sep-17 22:34 045 0 gusting 0 28.3
2020-Sep-17 22:24 338 27.8
2020-Sep-17 22:14 338 27.2
2020-Sep-17 22:04 338 1 gusting 1 27.2
2020-Sep-17 21:54 338 27.2
2020-Sep-17 21:44 292 0 gusting 1 26.7
2020-Sep-17 21:34 292 0 gusting 2 26.1
2020-Sep-17 21:24 338 1 gusting 1 26.1
2020-Sep-17 21:14 338 0 gusting 1 26.1
2020-Sep-17 21:04 338 26.1
2020-Sep-17 20:54 338 0 gusting 1 26.1
2020-Sep-17 20:44 338 26.1
2020-Sep-17 20:34 338 0 gusting 1 26.1
2020-Sep-17 20:24 338 0 gusting 1 26.1
2020-Sep-17 20:14 338 26.1
2020-Sep-17 20:04 338 26.1
2020-Sep-17 19:54 338 26.7
2020-Sep-17 19:44 338 1 gusting 1 26.7
2020-Sep-17 19:34 112 0 gusting 1 26.7
2020-Sep-17 19:24 158 26.7
2020-Sep-17 19:14 158 0 gusting 2 27.2
2020-Sep-17 19:04 090 0 gusting 1 27.2
2020-Sep-17 18:54 086 1 gusting 2 27.2
2020-Sep-17 18:44 153 1 gusting 2 27.2
2020-Sep-17 18:34 141 1 gusting 4 27.2
2020-Sep-17 18:24 135 2 gusting 5 27.2
2020-Sep-17 18:14 176 2 gusting 5 27.2
2020-Sep-17 18:04 158 4 gusting 6 27.2
2020-Sep-17 17:54 184 4 gusting 6 27.2
2020-Sep-17 17:44 191 4 gusting 7 27.2
2020-Sep-17 17:34 181 2 gusting 6 27.2
2020-Sep-17 17:24 188 4 gusting 6 27.8
2020-Sep-17 17:14 169 5 gusting 6 27.2
2020-Sep-17 17:04 178 4 gusting 5 27.2
2020-Sep-17 16:54 174 2 gusting 6 27.2
2020-Sep-17 16:44 194 4 gusting 7 27.2
2020-Sep-17 16:34 164 4 gusting 6 27.8
2020-Sep-17 16:24 195 5 gusting 8 27.8
2020-Sep-17 16:14 176 5 gusting 10 27.8
2020-Sep-17 16:04 194 5 gusting 7 27.8
2020-Sep-17 15:54 177 5 gusting 7 27.8
2020-Sep-17 15:44 179 4 gusting 8 27.8
2020-Sep-17 15:34 193 5 gusting 10 27.8
2020-Sep-17 15:24 193 5 gusting 8 27.8
2020-Sep-17 15:14 199 5 gusting 7 27.8
2020-Sep-17 15:04 171 5 gusting 11 27.2
2020-Sep-17 14:54 184 2 gusting 5 27.2
2020-Sep-17 14:44 181 4 gusting 6 27.2
2020-Sep-17 14:34 198 2 gusting 6 27.2
2020-Sep-17 14:24 190 3 gusting 6 27.2
2020-Sep-17 14:14 184 3 gusting 6 27.2
2020-Sep-17 14:04 179 1 gusting 4 27.2
2020-Sep-17 13:54 240 0 gusting 4 27.2
2020-Sep-17 13:44 170 3 gusting 6 27.2
2020-Sep-17 13:34 163 1 gusting 5 27.2
2020-Sep-17 13:24 179 2 gusting 5 27.2
2020-Sep-17 13:14 184 2 gusting 6 27.2
2020-Sep-17 13:04 187 4 gusting 6 27.8
2020-Sep-17 12:54 186 4 gusting 7 27.8
2020-Sep-17 12:44 157 2 gusting 7 27.8
2020-Sep-17 12:34 173 2 gusting 5 27.2
2020-Sep-17 12:24 213 2 gusting 4 27.2
2020-Sep-17 12:14 199 2 gusting 4 27.2
2020-Sep-17 12:04 202 1 gusting 2 27.2
2020-Sep-17 11:54 204 1 gusting 2 27.2
2020-Sep-17 11:44 135 0 gusting 6 27.2
2020-Sep-17 11:34 146 1 gusting 2 27.2
2020-Sep-17 11:24 179 2 gusting 4 27.2
2020-Sep-17 11:14 146 1 gusting 2 27.2
2020-Sep-17 11:04 152 1 gusting 4 27.2
2020-Sep-17 10:54 153 2 gusting 4 27.2
2020-Sep-17 10:44 169 2 gusting 5 27.2
2020-Sep-17 10:34 160 3 gusting 5 27.2
2020-Sep-17 10:24 173 2 gusting 4 27.2
2020-Sep-17 10:14 146 1 gusting 4 27.2
2020-Sep-17 10:04 162 1 gusting 2 27.2
2020-Sep-17 09:54 196 2 gusting 4 27.2
2020-Sep-17 09:44 143 1 gusting 4 27.2
2020-Sep-17 09:34 167 0 gusting 2 27.2
2020-Sep-17 09:24 172 1 gusting 4 27.2
2020-Sep-17 09:14 181 1 gusting 5 27.2
2020-Sep-17 09:04 156 1 gusting 6 27.2
2020-Sep-17 08:54 186 3 gusting 6 27.2
2020-Sep-17 08:44 147 2 gusting 5 27.2
2020-Sep-17 08:34 202 3 gusting 5 27.8
2020-Sep-17 08:24 201 4 gusting 7 27.8
2020-Sep-17 08:14 211 2 gusting 4 27.8
2020-Sep-17 08:04 202 2 gusting 5 27.8
2020-Sep-17 07:54 179 1 gusting 5 27.8
2020-Sep-17 07:44 172 4 gusting 6 27.8
2020-Sep-17 07:34 169 1 gusting 6 27.8
2020-Sep-17 07:24 190 3 gusting 6 28.3
2020-Sep-17 07:14 208 3 gusting 6 28.3
2020-Sep-17 07:04 172 4 gusting 6 28.9
2020-Sep-17 06:54 145 2 gusting 7 28.9
2020-Sep-17 06:44 151 3 gusting 7 28.9
2020-Sep-17 06:34 204 2 gusting 6 28.9
2020-Sep-17 06:24 194 4 gusting 6 28.9
2020-Sep-17 06:14 197 4 gusting 6 28.9
2020-Sep-17 06:04 198 5 gusting 8 28.9
2020-Sep-17 05:54 201 4 gusting 7 29.4
2020-Sep-17 05:44 198 4 gusting 7 29.4
2020-Sep-17 05:34 231 2 gusting 6 29.4
2020-Sep-17 05:24 202 5 gusting 6 30.6
2020-Sep-17 05:14 187 3 gusting 5 30.0
2020-Sep-17 05:04 181 4 gusting 6 30.0
2020-Sep-17 04:54 148 5 gusting 6 30.0
2020-Sep-17 04:44 202 5 gusting 8 30.6
2020-Sep-17 04:34 197 4 gusting 6 31.7
2020-Sep-17 04:24 214 4 gusting 6 31.7
2020-Sep-17 04:14 164 3 gusting 6 31.1
2020-Sep-17 04:04 256 0 gusting 4 31.1
2020-Sep-17 03:54 228 2 gusting 5 30.6
2020-Sep-17 03:44 198 2 gusting 5 30.6
2020-Sep-17 03:34 197 2 gusting 5 31.1
2020-Sep-17 03:24 195 2 gusting 5 31.1
2020-Sep-17 03:14 205 3 gusting 5 31.1
2020-Sep-17 03:04 211 2 gusting 5 31.1
2020-Sep-17 02:54 182 2 gusting 6 30.6
2020-Sep-17 02:44 174 2 gusting 6 31.1
2020-Sep-17 02:34 101 2 gusting 4 32.8
2020-Sep-17 02:24 111 1 gusting 2 31.7
2020-Sep-17 02:14 198 1 gusting 4 30.6
2020-Sep-17 02:04 135 0 gusting 4 30.0
2020-Sep-17 01:54 234 1 gusting 5 31.1
2020-Sep-17 01:44 135 1 gusting 5 31.1
2020-Sep-17 01:34 172 0 gusting 2 30.6
2020-Sep-17 01:24 078 0 gusting 4 30.0
2020-Sep-17 01:14 095 2 gusting 5 30.0
2020-Sep-17 01:04 068 0 gusting 2 29.4
2020-Sep-17 00:54 122 1 gusting 2 29.4
2020-Sep-17 00:44 068 1 gusting 5 30.0
2020-Sep-17 00:34 060 2 gusting 5 28.9
2020-Sep-17 00:24 045 1 gusting 5 28.3
2020-Sep-17 00:14 026 1 gusting 2 28.3
2020-Sep-17 00:04 006 1 gusting 5 27.8
2020-Sep-16 23:54 036 0 gusting 4 27.8
2020-Sep-16 23:44 045 1 gusting 4 27.8
2020-Sep-16 23:34 045 1 gusting 4 26.7
2020-Sep-16 23:24 045 0 gusting 2 26.7
2020-Sep-16 23:14 041 0 gusting 1 26.1
2020-Sep-16 23:04 049 1 gusting 4 26.1
2020-Sep-16 22:54 033 0 gusting 2 25.6
2020-Sep-16 22:44 026 0 gusting 2 25.0
2020-Sep-16 22:34 066 0 gusting 4 25.0
2020-Sep-16 22:24 049 2 gusting 5 24.4
2020-Sep-16 22:14 042 0 gusting 2 24.4
2020-Sep-16 22:04 009 0 gusting 1 24.4
2020-Sep-16 21:54 027 0 gusting 1 24.4
2020-Sep-16 21:44 028 0 gusting 2 23.9
2020-Sep-16 21:34 068 0 gusting 2 23.9
2020-Sep-16 21:24 045 23.9
2020-Sep-16 21:14 045 0 gusting 2 23.3
2020-Sep-16 21:04 017 0 gusting 2 23.3
2020-Sep-16 20:54 001 0 gusting 1 23.3
2020-Sep-16 20:44 356 0 gusting 1 23.3
2020-Sep-16 20:34 022 0 gusting 1 22.8
2020-Sep-16 20:24 022 0 gusting 2 23.3
2020-Sep-16 20:14 032 1 gusting 4 23.3
2020-Sep-16 20:04 039 1 gusting 5 23.3
2020-Sep-16 19:54 068 0 gusting 1 23.3
2020-Sep-16 19:44 045 23.3
2020-Sep-16 19:34 019 1 gusting 2 23.3
2020-Sep-16 19:24 045 0 gusting 2 23.3
2020-Sep-16 19:14 045 23.3
2020-Sep-16 19:04 23.3
2020-Sep-16 18:54 027 0 gusting 1 23.3
2020-Sep-16 18:44 045 0 gusting 1 23.3
2020-Sep-16 18:34 022 0 gusting 1 23.3
2020-Sep-16 18:24 015 0 gusting 1 23.3
2020-Sep-16 18:14 022 0 gusting 1 23.3
2020-Sep-16 18:04 055 0 gusting 2 23.3
2020-Sep-16 17:54 022 23.3
2020-Sep-16 17:44 022 0 gusting 2 23.9
2020-Sep-16 17:34 012 0 gusting 1 23.9
2020-Sep-16 17:24 081 0 gusting 4 23.9
2020-Sep-16 17:14 045 0 gusting 2 23.9
2020-Sep-16 17:04 045 23.9
2020-Sep-16 16:54 022 23.9
2020-Sep-16 16:44 042 23.9
2020-Sep-16 16:34 055 0 gusting 1 23.9
2020-Sep-16 16:24 045 23.9
2020-Sep-16 16:14 045 0 gusting 4 23.9
2020-Sep-16 16:04 036 1 gusting 4 23.9
2020-Sep-16 15:54 062 2 gusting 5 24.4
2020-Sep-16 15:44 093 2 gusting 6 24.4
2020-Sep-16 15:34 077 2 gusting 6 24.4
2020-Sep-16 15:24 057 4 gusting 6 24.4
2020-Sep-16 15:14 049 0 gusting 2 24.4
2020-Sep-16 15:04 045 24.4
2020-Sep-16 14:54 063 1 gusting 2 24.4
2020-Sep-16 14:44 045 0 gusting 2 24.4
2020-Sep-16 14:34 045 0 gusting 1 24.4
2020-Sep-16 14:24 022 0 gusting 1 24.4
2020-Sep-16 14:14 068 0 gusting 1 24.4
2020-Sep-16 14:04 068 24.4
2020-Sep-16 13:54 068 24.4
2020-Sep-16 13:44 068 0 gusting 1 24.4
2020-Sep-16 13:34 045 0 gusting 1 24.4
2020-Sep-16 13:24 068 24.4
2020-Sep-16 13:14 068 24.4
2020-Sep-16 13:04 068 0 gusting 2 24.4